Regional Weather Roundup
Issued by NWS

Home | Current Version | Previous Version | Text Only | Print | Product List | Glossary On
Versions: 1 2 3 4 5 6 7 8 9 10 11 12 13 14 15 16 17 18 19 20 21 22 23 24 25 26 27 28 29 30 31 32 33 34 35 36 37 38 39 40 41 42 43 44 45 46 47 48 49 50
000
ASUS43 KMKX 280000
RWRWI

WISCONSIN REGIONAL WEATHER ROUNDUP
NATIONAL WEATHER SERVICE MILWAUKEE/SULLIVAN WI
600 PM CST SAT DEC 27 2014

NOTE: "FAIR" INDICATES FEW OR NO CLOUDS BELOW 12,000 FEET WITH NO
SIGNIFICANT WEATHER AND/OR OBSTRUCTIONS TO VISIBILITY.

WIZ001-002-006>008-014>016-023>028-280100-
NORTHWEST WISCONSIN

CITY           SKY/WX    TMP DP  RH WIND       PRES   REMARKS
SUPERIOR ARPT  CLOUDY    23  10  56 S5        30.01S WCI  17
ASHLAND        CLEAR     15  11  83 SW6       30.01R WCI   6
6HR MIN TEMP:  14; 6HR MAX TEMP:  26;

HAYWARD        FAIR      14  11  87 S6        30.01R WCI   5
6HR MIN TEMP:  14; 6HR MAX TEMP:  24;

SIREN          FAIR      19  12  73 SW6       30.05R WCI  11
CUMBERLAND     CLEAR     12   7  79 SW7       30.03R WCI   2
RICE LAKE      CLEAR     19  13  79 SW3       30.06R
CHETEK         CLEAR     14  12  92 CALM      30.05S
LADYSMITH      CLEAR     18  14  86 SW6       30.04R WCI  10
EAU CLAIRE     CLEAR     16  12  84 SW5       30.08R WCI   9
6HR MIN TEMP:  16; 6HR MAX TEMP:  27;

MENOMONIE      CLEAR     17  14  88 SW7       30.09R WCI   8
NEW RICHMOND   CLEAR     16  11  81 SW6       30.08S WCI   7
OSCEOLA        CLEAR     19  13  79 SW7       30.11R WCI   9
$$

WIZ003>005-009-010-017-018-280100-
NORTH CENTRAL WISCONSIN

CITY           SKY/WX    TMP DP  RH WIND       PRES   REMARKS
MANITOWISH WTR MOCLDY    22  19  91 W7        29.94S WCI  13
ARBOR VITAE    MOCLDY    24  20  84 W5        29.94R WCI  18
WOODRUFF       MOCLDY    24  20  84 W5        29.94R WCI  18
RHINELANDER    CLOUDY    24  20  84 W10       29.95R WCI  14
6HR MIN TEMP:  24; 6HR MAX TEMP:  30; 6HR PCP: TRACE;

EAGLE RIVER    CLOUDY    25  21  84 W6        29.93R WCI  18
LAND O LAKES   CLOUDY    25  22  89 W8G16     29.93R WCI  16
PHILLIPS       FAIR      20  17  87 W3        29.98R
TOMAHAWK       CLOUDY    24  20  83 W8        29.98R WCI  15
MEDFORD        CLOUDY    23  19  84 W14       30.00R WCI  10
MERRILL        CLOUDY    26  22  84 W13       29.98R WCI  15
$$

WIZ029-030-035-036-043>047-280100-
CENTRAL WISCONSIN

CITY           SKY/WX    TMP DP  RH WIND       PRES   REMARKS
WAUSAU         CLOUDY    26  20  77 W9G18     30.00R WCI  17
6HR MIN TEMP:  26; 6HR MAX TEMP:  32; 6HR PCP: TRACE;

MOSINEE        CLOUDY    27  25  93 W10G17    30.02R WCI  17
MARSHFIELD     CLOUDY    24  19  81 NW14G21   30.03R WCI  12
6HR MIN TEMP:  24; 6HR MAX TEMP:  32;

STEVENS POINT  CLOUDY    26  22  85 W12G18    30.02S WCI  15
WAUPACA        CLOUDY    33  27  79 W12G22    30.02R WCI  24
WAUTOMA        NOT AVBL
WISC RAPIDS    CLOUDY    27  21  78 W10       30.06R WCI  17
6HR MIN TEMP:  27; 6HR MAX TEMP:  32;

CAMP DOUGLAS   NOT AVBL
$$

WIZ011>013-019>022-031-037>040-048>050-280100-
NORTHEAST WISCONSIN

CITY           SKY/WX    TMP DP  RH WIND       PRES   REMARKS
ANTIGO         CLOUDY    26  23  87 W14       29.96R WCI  15
SHAWANO        MOCLDY    34  32  93 W8        29.98R WCI  27
OCONTO         CLOUDY    32  32 100 W3        29.97R
STURGEON BAY   CLOUDY    32  28  86 W7        29.98R WCI  26
6HR MIN TEMP:  32; 6HR MAX TEMP:  34;

GREEN BAY      CLOUDY    34  30  85 W7        29.99R WCI  28
6HR MIN TEMP:  34; 6HR MAX TEMP:  37;

MANITOWOC      NOT AVBL
APPLETON       MOCLDY    34  30  86 W12       29.99R WCI  25
CLINTONVILLE   CLOUDY    32  30  93 NW8       29.99R WCI  25
OSHKOSH        MOCLDY    32  27  81 W9        30.00R WCI  24
6HR MIN TEMP:  32; 6HR MAX TEMP:  38;

$$

WIZ032>034-041-042-053>061-280100-
SOUTHWEST WISCONSIN

CITY           SKY/WX    TMP DP  RH WIND       PRES   REMARKS
LA CROSSE      CLOUDY    25  18  74 W12       30.13R WCI  14
6HR MIN TEMP:  25; 6HR MAX TEMP:  31;

SPARTA         CLOUDY    26  20  78 W10G20    30.11R WCI  16
VIROQUA        CLOUDY    25  25 100 W7G20     30.09R WCI  17
BOSCOBEL       CLOUDY    29  22  75 W9        30.13R WCI  20
6HR MIN TEMP:  29; 6HR MAX TEMP:  33;

PRAIRIE DU CHI CLOUDY    26  20  77 W14G20    30.15R WCI  15
PLATTEVILLE    CLOUDY    30  25  84 W16       30.11R WCI  18
$$

WIZ056-057-062-063-064-067-068-280100-
SOUTH CENTRAL WISCONSIN

CITY           SKY/WX    TMP DP  RH WIND       PRES   REMARKS
REEDSBURG      CLOUDY    29  24  81 W10       30.06S WCI  20
BARABOO/DELLS  CLOUDY    29  24  80 W9        30.06R WCI  21
LONE ROCK      NOT AVBL
MINERAL POINT  CLOUDY    32  27  80 W7        30.07S WCI  26
MADISON        MOCLDY    31  25  78 W9        30.06R WCI  23
6HR MIN TEMP:  31; 6HR MAX TEMP:  36;

MIDDLETON      CLOUDY    32  27  81 W14       30.06R WCI  22
WATERTOWN      CLOUDY    32  28  86 W8        30.04R WCI  25
MONROE         CLOUDY    32  28  86 W14       30.07R WCI  22
JANESVILLE     CLOUDY    34  27  75 W12G17    30.06R WCI  25
$$

WIZ051-052-058>065-066-070>072-280100-
SOUTHEAST WISCONSIN

CITY           SKY/WX    TMP DP  RH WIND       PRES   REMARKS
MILWAUKEE      CLOUDY    35  25  66 NW15      30.03R WCI  25
6HR MIN TEMP:  35; 6HR MAX TEMP:  42;

WAUKESHA       CLOUDY    32  27  80 W13       30.03R WCI  22
MILWAUKEE/TIMM CLOUDY    34  25  69 NW13G22   30.03  WCI  25
RACINE         CLOUDY    35  26  69 W13G20    30.04R WCI  26
6HR MIN TEMP:  35; 6HR MAX TEMP:  43;

BURLINGTON     CLOUDY    32  26  77 W15G21    30.04R WCI  22
KENOSHA        CLOUDY    34  27  75 W14G22    30.03R WCI  25
6HR MIN TEMP:  34; 6HR MAX TEMP:  41;

FOND DU LAC    CLOUDY    32  27  81 W14       30.01R WCI  22
6HR MIN TEMP:  32; 6HR MAX TEMP:  39;

SHEBOYGAN      CLOUDY    34  29  82 W10G20    30.00R WCI  26
6HR MIN TEMP:  34; 6HR MAX TEMP:  43;

WEST BEND      CLOUDY    32  28  86 W12       30.00R WCI  23
JUNEAU         CLOUDY    31  27  84 W9G16     30.04R WCI  23
$$

LSZ147-162-280100-
LAKE SUPERIOR

STATION/POSITION TIME  TEMP    WIND        PRES    WAVE
                       AIR SEA DIR/SP/G            HT/PER
                 (UTC) (F)     (DEG/KT/KT) (MB)    (FT/S)
DEVILS ISLAND    2300   26     270/ 17/ 21 1016.2R
PORT WING        2340   22     190/  6/  7 1016.6R
SAXON HARBOR     2300   22      CALM  /  3 1016.3R
$$

LMZ867-665-643>646-280100-
LAKE MICHIGAN

STATION/POSITION TIME  TEMP    WIND        PRES    WAVE
                       AIR SEA DIR/SP/G            HT/PER
                 (UTC) (F)     (DEG/KT/KT) (MB)    (FT/S)
CHAMBERS ISLAND  2300   33     300/  5/ 10 1013.9R
NORTHPORT PIER   2300   34     300/  9/ 19 1013.2R
SISTER BAY       2313          320/ 16/ 19   N/A
ALGOMA LAKESHORE 2245          320/  9/ 12   N/A
KEWAUNEE LAKESHO 2300   33     310/  7/  9 1013.2R
SHEBOYGAN LAKESH 2300   35 38  290/ 14/ 17 1015.8R
PORT WASHINGTON  2300   35     280/ 10/ 15 1016.3R
MILWAUKEE LAKESH 2300   35     300/ 12/ 19   N/A
KENOSHA   LAKESH 2300   35     270/ 15/ 20 1016.6R
$$

TC  - TEMPERATURE IN CELSIUS
VSB - VISIBILITY IN STATUTE MILES
WCI - WIND CHILL INDEX
HX  - HEAT INDEX



USA.gov is the U.S. government's official web portal to all federal, state and local government web resources and services.